GW1942 Weather Reports


time (UTC)temp
F
wind
direction
speed
knots
gust
knots
rain 1hr
in
rain 24hr
in
rain mn
in
humidity
%
barometer
mb
20260510113025 37 154 0.0 0.0 0.00 0.00 0.00 89 1017.5
20260510111525 37 127 0.0 0.9 0.00 0.00 0.00 88 1017.8
20260510110022 39 224 0.0 0.0 0.00 0.00 0.00 85 1017.8
20260510104520 38 226 0.0 0.9 0.00 0.00 0.00 87 1017.8
20260510103020 38 105 0.0 0.9 0.00 0.00 0.00 87 1017.8
20260510101518 38 147 0.0 1.7 0.00 0.00 0.00 87 1017.7
20260510100015 40 147 0.0 1.7 0.00 0.00 0.00 82 1017.8
20260510094531 40 90 0.0 0.9 0.00 0.00 0.00 85 1017.9
20260510093011 41 134 0.0 0.9 0.00 0.00 0.00 84 1017.8
20260510091510 41 213 0.0 0.9 0.00 0.00 0.00 84 1017.8
20260510090008 41 148 0.0 0.0 0.00 0.00 0.00 83 1017.9
20260510084514 42 261 0.0 1.7 0.00 0.00 0.00 83 1017.8
20260510083004 42 138 0.0 0.9 0.00 0.00 0.00 81 1017.7
20260510081505 42 148 0.0 0.0 0.00 0.00 0.00 81 1017.7
20260510080002 42 165 0.0 0.0 0.00 0.00 0.00 82 1017.7
20260510074559 42 134 0.0 0.9 0.00 0.00 0.00 81 1017.7
20260510073059 43 137 0.0 0.0 0.00 0.00 0.00 80 1017.7
20260510071559 43 123 0.0 0.9 0.00 0.00 0.00 80 1017.7
20260510070052 44 200 0.0 0.9 0.00 0.00 0.00 76 1017.5
20260510064559 44 198 0.0 0.9 0.00 0.00 0.00 77 1017.6
20260510063047 45 160 0.0 0.9 0.00 0.00 0.00 74 1017.6
20260510061544 47 148 0.0 0.9 0.00 0.00 0.00 71 1017.6
20260510060044 48 62 0.9 2.6 0.00 0.00 0.00 68 1017.6
20260510054541 46 149 0.0 1.7 0.00 0.00 0.00 73 1017.6
20260510053041 49 166 0.0 1.7 0.00 0.00 0.00 70 1017.4
20260510051540 52 146 0.9 3.5 0.00 0.00 0.00 62 1017.4
20260510050039 54 120 1.7 6.1 0.00 0.00 0.00 56 1017.4
20260510044541 54 96 0.0 2.6 0.00 0.00 0.00 54 1017.5
20260510043038 53 108 1.7 4.3 0.00 0.00 0.00 55 1017.4
20260510041541 55 178 1.7 5.2 0.00 0.00 0.00 53 1017.3
20260510040036 56 91 1.7 5.2 0.00 0.00 0.00 51 1017.0
20260510034535 58 86 3.5 7.8 0.00 0.00 0.00 50 1016.9
20260510033034 59 97 2.6 5.2 0.00 0.00 0.00 47 1016.7
20260510031534 61 94 1.7 4.3 0.00 0.00 0.00 47 1016.7
20260510030044 60 75 0.9 2.6 0.00 0.00 0.00 52 1016.5
20260510024532 63 226 0.0 0.9 0.00 0.00 0.00 47 1016.4
20260510023032 67 276 0.0 0.9 0.00 0.00 0.00 33 1016.1
20260510021532 69 311 0.0 2.6 0.00 0.00 0.00 32 1016.2
20260510020031 71 289 0.0 2.6 0.00 0.00 0.00 31 1016.2
20260510014532 71 316 1.7 5.2 0.00 0.00 0.00 29 1016.0
20260510013031 72 241 0.0 3.5 0.00 0.00 0.00 30 1016.1
20260510011528 72 261 0.9 4.3 0.00 0.00 0.00 29 1016.1
20260510010026 73 240 0.9 6.1 0.00 0.00 0.00 28 1016.1
20260510004525 74 224 1.7 4.3 0.00 0.00 0.00 27 1016.0
20260510003035 74 282 0.0 3.5 0.00 0.00 0.00 27 1016.0
20260510001524 74 241 0.9 5.2 0.00 0.00 0.00 27 1016.0
20260510000023 74 251 1.7 4.3 0.00 0.00 0.00 27 1015.8
20260509234530 73 155 0.9 5.2 0.00 0.00 0.00 27 1015.7
20260509233020 73 212 2.6 6.1 0.00 0.00 0.00 27 1015.9
20260509231520 74 203 2.6 6.1 0.00 0.00 0.00 26 1015.9
20260509230019 74 192 0.0 6.1 0.00 0.00 0.00 27 1016.0
20260509224518 74 214 0.9 5.2 0.00 0.00 0.00 28 1016.0
20260509223016 74 235 1.7 6.1 0.00 0.00 0.00 29 1016.1
20260509221516 73 275 0.9 7.8 0.00 0.00 0.00 28 1016.3
20260509220024 74 300 1.7 8.7 0.00 0.00 0.00 26 1016.2
20260509214512 71 79 0.9 3.5 0.00 0.00 0.00 28 1016.5
20260509213012 70 248 0.9 4.3 0.00 0.00 0.00 31 1016.5
20260509211511 71 249 0.9 5.2 0.00 0.00 0.00 28 1016.6
20260509210011 72 298 0.9 6.1 0.00 0.00 0.00 28 1016.7
20260509204508 72 309 3.5 7.0 0.00 0.00 0.00 28 1016.7
20260509203010 72 40 0.9 4.3 0.00 0.00 0.00 32 1016.5
20260509201505 71 304 1.7 7.0 0.00 0.00 0.00 32 1016.8
20260509200006 71 296 2.6 7.0 0.00 0.00 0.00 31 1016.7
20260509194502 71 313 1.7 3.5 0.00 0.00 0.00 33 1016.8
20260509193002 70 59 1.7 4.3 0.00 0.00 0.00 31 1016.9
20260509191601 70 40 0.9 5.2 0.00 0.00 0.00 32 1017.0
20260509190057 68 207 3.5 7.0 0.00 0.00 0.00 34 1017.1
20260509184557 68 38 1.7 5.2 0.00 0.00 0.00 34 1017.1
20260509183055 68 83 0.0 6.1 0.00 0.00 0.00 38 1017.2
20260509181600 68 108 0.9 2.6 0.00 0.00 0.00 34 1017.3
20260509180050 66 281 0.0 4.3 0.00 0.00 0.00 36 1017.4
20260509174548 65 295 0.0 5.2 0.00 0.00 0.00 39 1017.4
20260509173048 65 302 0.0 2.6 0.00 0.00 0.00 42 1017.5
20260509171543 63 271 0.0 2.6 0.00 0.00 0.00 44 1017.7
20260509170046 61 39 0.0 2.6 0.00 0.00 0.00 46 1017.8
20260509164541 60 44 0.0 3.5 0.00 0.00 0.00 48 1017.9
20260509163034 58 37 0.9 2.6 0.00 0.00 0.00 56 1018.1
20260509161534 58 271 1.7 2.6 0.00 0.00 0.00 55 1018.0
20260509160032 56 283 0.0 3.5 0.00 0.00 0.00 58 1018.2
20260509154524 56 134 0.0 1.7 0.00 0.00 0.00 58 1018.3
20260509153027 54 85 0.0 0.9 0.00 0.00 0.00 61 1018.2
20260509151521 53 70 0.0 0.9 0.00 0.00 0.00 61 1018.2
20260509150020 51 96 0.0 0.9 0.00 0.00 0.00 65 1018.2
20260509144518 50 73 0.0 0.9 0.00 0.00 0.00 68 1018.1
20260509143017 48 153 0.0 0.9 0.00 0.00 0.00 72 1018.0
20260509141516 47 100 0.0 0.0 0.00 0.00 0.00 76 1017.9
20260509140014 45 100 0.0 0.0 0.00 0.00 0.00 77 1017.7
20260509134512 44 100 0.0 0.0 0.00 0.00 0.00 80 1017.4
20260509133010 41 139 0.0 0.0 0.00 0.00 0.00 89 1017.3
20260509131512 40 206 0.0 0.9 0.00 0.00 0.00 87 1017.2
20260509130008 39 139 0.0 0.9 0.00 0.00 0.00 88 1017.1
20260509124506 38 144 0.0 0.0 0.00 0.00 0.00 88 1016.8
20260509123006 39 144 0.0 0.9 0.00 0.00 0.00 87 1016.5
20260509121612 39 152 0.0 0.9 0.00 0.00 0.00 83 1016.4
20260509120112 42 169 0.0 1.7 0.00 0.00 0.00 78 1015.9
20260509114555 41 210 0.0 0.9 0.00 0.00 0.00 84 1016.1